Theta_e
286 285 284 284 283 283 282 281 281 281 280 280 280 280 280 279 279 279 279 279 279 279 279 279 279 279 279 278 278 278 278 277 277 277 277 277 276 276 276 275 275 275
285 284 284 283 283 282 281 281 281 281 280 280 279 279 279 279 279 279 279 279 279 278 278 278 278 278 278 278 278 277 277 277 276 278 276 276 276 276 275 275 275 275
283 282 282 281 282 281 281 280 280 280 280 279 279 279 279 279 278 278 278 279 278 278 278 278 277 277 277 277 277 277 277 276 275 275 276 275 275 275 275 275 274 274
282 282 282 281 281 281 280 280 279 279 279 279 279 279 280 279 278 278 278 279 278 277 277 277 277 277 277 277 277 276 276 276 275 276 275 275 275 275 275 275 275 274
281 281 281 281 280 280 280 280 279 279 279 279 279 279 279 278 278 278 278 277 277 277 277 276 276 276 276 276 276 276 276 275 275 275 275 275 275 275 275 275 274 274
281 281 280 280 280 280 279 279 279 279 279 278 278 279 278 278 278 277 277 277 277 277 276 276 276 276 276 276 276 276 275 275 275 275 275 274 274 274 275 274 274 274
280 280 280 280 279 279 279 279 279 279 278 278 278 278 278 278 277 277 277 277 277 277 276 276 276 275 276 276 276 275 275 275 275 275 274 274 274 273 274 274 274 273
280 280 280 279 279 279 279 279 278 278 278 278 278 277 278 277 277 277 277 277 276 276 276 276 275 275 275 276 276 275 275 274 274 274 274 273 273 273 273 273 273 272
280 279 279 279 279 278 278 278 278 278 278 278 277 277 277 277 277 277 276 276 276 276 276 275 275 275 275 276 276 276 275 274 274 273 273 273 272 272 272 272 272 272
280 279 279 279 279 278 278 278 278 277 278 277 277 277 277 277 277 276 276 276 276 276 276 276 275 275 275 276 276 276 275 274 274 274 273 273 273 272 272 272 272 271
279 279 279 279 278 278 278 278 277 277 277 277 277 277 277 276 276 276 277 277 277 276 276 276 276 275 275 275 274 274 275 275 274 274 273 273 272 272 274 272 272 272
279 279 279 278 278 278 278 278 277 277 277 277 277 277 276 276 277 277 277 277 277 277 276 276 276 275 275 275 274 274 274 274 274 274 273 272 272 272 272 272 272 271
279 279 279 279 278 278 278 277 277 277 277 276 277 276 276 277 277 277 277 277 277 276 276 276 275 275 275 274 274 274 274 274 274 273 272 272 272 272 272 271 271 271
279 279 279 279 278 278 278 277 277 277 277 276 276 277 277 277 277 277 277 277 276 276 276 276 275 275 274 274 274 274 274 274 274 273 272 272 271 271 271 271 271 271
279 279 279 278 278 277 277 277 277 277 277 277 278 278 278 278 277 277 276 276 276 276 275 275 274 274 274 274 274 274 274 274 274 273 273 272 271 271 271 271 270 271
280 279 279 278 277 277 277 277 277 277 278 278 278 278 278 278 277 277 276 276 275 275 275 275 274 274 276 278 277 275 275 274 274 274 273 272 272 271 271 271 271 271
279 279 278 278 278 277 277 277 278 278 278 278 278 278 277 277 277 276 276 276 275 274 274 274 274 275 278 281 281 280 276 275 274 274 273 273 272 272 271 271 271 271
280 279 278 278 278 278 278 278 278 278 278 278 277 277 277 276 276 276 276 275 275 275 274 274 274 277 280 282 282 282 279 275 275 274 274 273 272 272 272 271 271 271
280 279 279 279 279 279 279 278 278 278 278 277 277 277 277 276 276 276 275 275 275 274 274 274 274 278 281 282 283 283 282 278 274 274 273 272 272 272 271 271 270 270
280 280 279 279 279 279 279 278 278 278 278 278 277 277 276 276 276 275 276 275 275 274 274 274 274 278 281 283 284 284 284 280 274 273 273 272 272 272 271 271 271 270
280 280 280 280 279 279 279 278 278 278 278 277 277 277 276 276 276 275 275 275 275 275 274 274 274 278 281 283 284 284 285 282 273 272 272 272 272 272 271 271 271 270
280 280 280 280 279 279 278 278 278 278 277 277 277 277 276 276 276 276 275 275 275 274 274 274 274 279 281 283 284 285 285 279 272 272 272 271 271 271 271 271 271 270
281 280 280 279 279 278 278 278 278 277 277 277 276 277 276 276 275 275 276 275 275 274 274 274 274 278 281 282 284 285 284 277 273 272 271 270 270 271 271 271 271 271
281 281 280 279 279 278 278 278 278 278 277 277 276 276 276 276 276 275 275 275 275 274 274 274 274 276 280 281 283 285 284 277 274 272 271 270 269 270 270 270 271 273
281 280 280 279 278 278 278 278 278 278 278 277 277 277 276 276 276 275 275 275 275 275 275 273 272 274 279 281 282 284 284 277 274 272 272 271 270 270 271 270 270 273
280 280 280 279 279 278 278 278 278 277 277 277 276 276 276 275 275 274 274 273 272 270 271 272 271 270 274 280 282 283 285 277 273 272 272 272 271 271 271 271 270 270
Wind_Speed
9 8 10 10 9 9 11 11 8 9 8 7 8 7 7 6 5 5 5 6 5 6 5 5 5 6 6 6 6 7 6 7 6 5 5 7 6 7 8 7 6 7
10 9 7 7 7 6 7 9 10 9 9 7 6 7 6 6 4 6 6 7 6 6 5 6 6 6 6 6 5 8 7 6 7 3 6 7 5 7 8 7 8 6
9 8 9 11 11 10 9 7 8 7 8 7 6 6 7 5 7 5 6 7 7 7 6 6 6 6 6 5 5 7 7 7 7 4 7 7 5 7 6 6 6 6
8 9 10 9 9 10 9 9 7 6 6 7 7 6 6 6 6 7 6 7 8 7 6 6 7 6 6 6 7 7 7 6 5 6 8 6 5 7 6 6 6 6
10 7 5 6 6 6 8 9 9 7 7 6 6 6 7 7 7 7 7 6 7 7 7 7 6 6 6 6 7 8 6 7 5 6 8 7 4 6 6 7 7 7
5 5 7 6 6 8 8 8 8 8 7 7 7 6 6 6 6 6 6 7 6 7 7 7 7 6 6 7 6 7 7 7 5 6 7 7 5 4 6 7 7 6
8 7 7 6 7 6 7 7 7 7 6 6 7 6 7 7 6 6 6 7 7 7 8 7 7 7 6 6 7 7 6 7 6 5 7 5 6 6 5 6 6 6
7 6 7 6 7 7 6 6 7 7 7 7 7 6 7 7 7 6 6 6 7 7 7 7 6 7 6 6 8 9 8 6 6 6 6 5 5 6 5 5 6 6
8 8 8 8 9 7 7 7 6 6 6 8 8 7 6 7 8 7 7 7 7 7 7 7 6 6 5 6 8 10 10 7 7 7 8 8 7 6 6 6 6 5
9 8 10 9 10 8 8 7 7 7 7 7 7 8 8 6 7 8 7 8 8 8 7 7 7 6 6 6 8 9 9 8 7 7 7 7 8 8 7 7 7 6
8 8 9 9 9 8 8 8 8 8 7 8 9 8 7 7 6 6 7 8 8 9 9 8 8 8 8 7 6 6 7 8 8 8 7 7 7 8 8 8 8 7
9 8 9 10 9 9 9 9 9 8 8 7 8 9 7 6 8 7 7 8 7 8 8 7 7 7 8 9 8 7 6 6 7 7 6 6 6 6 7 7 7 6
10 11 10 10 10 9 8 8 8 8 8 8 7 7 8 8 7 7 6 6 7 8 8 9 8 7 8 8 9 9 8 8 8 6 6 5 5 6 5 5 6 6
10 9 9 8 8 8 8 8 8 8 7 6 7 8 8 8 9 9 7 6 7 7 7 7 8 7 7 8 6 7 10 9 9 7 6 5 4 4 4 5 5 5
8 7 6 7 8 8 8 8 7 7 7 7 7 7 6 7 7 7 8 7 6 7 7 7 8 8 6 8 10 9 10 11 9 7 7 7 6 5 5 5 5 5
8 8 8 8 8 9 9 8 8 8 8 8 8 7 7 7 6 6 7 8 8 7 7 6 7 6 8 13 12 11 11 8 8 7 7 7 7 7 5 5 5 5
10 9 9 10 10 8 8 9 10 9 8 7 7 7 8 7 7 7 7 7 8 9 8 7 7 7 12 15 15 15 11 9 9 8 7 7 7 8 8 7 6 5
11 11 11 11 10 10 9 8 8 8 8 8 8 8 7 7 8 8 7 7 7 8 9 8 8 9 15 15 16 16 13 9 7 7 7 8 8 8 6 7 7 6
9 10 10 9 9 8 8 8 9 9 8 9 10 8 7 9 10 9 8 8 8 10 9 9 8 12 16 16 16 16 16 11 6 7 7 7 8 7 7 7 6 6
9 9 9 9 9 9 9 10 10 11 9 8 7 7 9 8 8 9 8 8 9 10 9 8 9 11 16 16 16 17 16 13 5 6 5 6 7 7 6 7 7 7
11 10 10 10 10 10 9 9 9 9 9 8 9 10 10 11 11 11 10 9 8 7 7 8 8 13 16 18 17 17 17 12 5 4 5 5 5 5 6 6 6 6
11 10 10 9 9 9 10 10 9 10 10 8 8 7 6 6 5 6 9 9 9 8 7 8 8 15 17 18 18 17 17 7 6 6 6 5 5 5 4 5 5 6
11 11 11 10 9 10 10 10 11 9 8 7 9 9 9 9 9 10 9 9 9 9 10 10 8 13 18 17 17 18 13 6 7 6 6 6 6 5 5 4 5 6
10 10 10 11 11 13 13 10 9 8 9 8 10 10 10 11 10 8 7 9 11 12 12 12 10 9 15 16 17 18 13 8 7 7 7 6 5 5 5 5 5 10
10 11 11 11 11 11 11 11 11 11 9 8 9 8 8 6 7 8 8 8 9 10 9 9 6 7 14 15 17 18 13 7 8 7 7 7 6 6 5 5 6 8
8 9 9 11 11 9 8 10 7 6 8 9 8 8 7 7 7 7 9 7 5 5 5 6 7 6 8 17 17 18 17 8 7 8 10 9 7 7 7 6 6 7
Wind_Direction
171 169 163 164 166 162 156 155 161 157 159 159 158 160 155 141 131 116 109 104 104 105 107 103 100 97 89 85 89 93 88 94 86 83 93 101 104 111 108 105 92 103
176 171 165 156 149 154 158 157 157 160 158 158 152 141 129 130 124 123 123 117 110 108 107 101 96 99 98 99 106 105 98 95 89 67 97 89 90 90 93 96 99 98
168 166 165 166 166 164 160 157 153 154 152 149 137 137 135 132 127 120 124 125 121 116 108 105 100 94 99 102 102 98 101 98 94 90 92 90 90 93 94 98 97 97
176 175 171 171 163 160 155 149 149 139 132 141 151 142 135 131 125 128 127 129 123 118 113 108 110 107 106 108 103 94 100 98 112 114 101 90 94 110 111 107 101 97
174 172 173 161 153 151 152 155 153 150 147 141 127 135 133 133 133 133 134 127 125 122 119 117 113 114 116 111 115 114 112 114 121 117 109 107 125 124 123 111 111 110
167 168 160 158 158 155 161 161 153 147 145 144 146 134 132 132 135 138 138 132 131 128 124 121 119 120 126 125 123 122 127 120 126 116 114 124 129 113 117 117 120 123
168 162 162 152 151 160 155 155 147 143 145 140 130 139 138 139 140 140 138 138 136 136 134 134 133 136 141 135 129 125 117 117 118 121 124 128 123 113 112 120 125 128
168 161 153 151 155 157 157 155 150 147 143 140 143 140 144 142 142 141 140 142 140 135 134 135 140 142 146 141 137 129 120 124 133 137 133 132 126 131 130 126 131 135
163 163 156 160 159 161 160 156 146 140 145 147 146 145 142 149 150 149 150 148 143 141 140 142 146 147 153 146 144 137 129 147 157 153 147 148 147 152 147 139 137 148
168 164 162 164 166 164 161 156 147 146 150 148 149 150 152 158 156 154 152 156 148 147 147 145 149 154 152 157 147 144 145 154 159 155 154 158 159 158 156 155 156 153
169 167 169 169 166 162 162 154 154 153 159 158 153 158 159 152 156 154 156 158 158 156 149 154 161 160 157 153 144 146 155 158 163 161 163 164 169 167 165 162 164 167
172 170 176 173 168 166 164 163 160 163 164 162 161 157 155 159 156 163 168 166 157 159 159 158 159 166 163 147 151 153 160 168 168 166 164 165 171 176 171 170 165 165
177 181 178 177 173 167 161 163 167 166 165 164 163 158 157 157 161 162 173 166 162 159 162 163 163 163 165 150 143 158 166 166 155 159 167 171 179 176 172 164 161 162
181 179 177 173 164 159 165 167 165 164 164 154 154 160 162 164 165 170 168 166 167 166 163 162 162 161 169 157 156 160 152 153 155 169 170 174 169 173 173 170 167 170
170 170 163 161 162 162 164 167 164 160 154 156 163 163 162 164 165 162 160 164 167 166 163 164 166 173 178 173 153 170 175 155 167 172 174 171 175 179 181 172 168 172
163 164 166 159 163 172 169 161 159 160 163 164 170 167 161 160 160 166 170 170 167 169 166 167 179 185 195 185 183 175 166 175 150 177 180 178 178 183 187 183 178 174
165 167 162 172 175 168 164 163 163 166 169 169 164 165 164 161 162 171 180 178 175 171 179 186 186 196 197 193 189 189 181 174 181 187 184 183 190 188 189 185 186 183
172 167 170 175 170 173 168 164 161 165 168 168 166 166 169 157 171 186 182 180 176 182 189 192 196 200 199 197 197 194 186 181 185 188 187 193 195 197 190 181 182 182
165 169 175 172 173 166 162 162 167 168 170 173 180 174 159 174 184 175 187 187 187 188 195 196 200 201 202 200 201 200 193 186 192 193 191 200 198 198 190 183 175 179
167 171 176 175 170 170 169 172 173 179 178 175 165 166 178 178 178 185 187 194 195 196 198 198 202 203 203 201 204 204 201 192 190 195 203 205 204 199 195 187 181 179
169 175 179 178 178 174 171 171 175 176 175 176 174 181 181 185 187 189 194 193 197 198 201 203 208 203 204 204 205 205 204 191 176 196 204 211 209 204 201 189 182 180
171 174 176 176 173 171 174 179 179 181 180 175 174 183 191 188 196 188 192 194 196 195 199 214 214 206 208 208 205 204 203 178 177 196 206 208 207 204 200 194 184 182
175 175 176 171 170 172 181 183 182 182 181 172 182 189 187 195 196 198 197 192 194 196 203 215 212 208 209 209 206 203 200 171 179 190 205 208 213 198 203 200 198 190
172 168 170 175 178 186 188 189 186 184 185 178 184 186 196 200 198 197 197 198 199 203 205 208 210 199 206 209 207 205 199 179 179 187 208 209 211 207 197 209 202 204
173 179 182 181 184 190 187 185 187 189 185 180 192 193 202 188 192 200 206 208 210 212 206 208 207 199 208 211 210 210 204 173 175 186 204 214 203 217 207 200 216 215
177 178 181 183 190 188 185 191 182 170 177 182 191 194 195 190 193 204 209 215 202 200 201 205 206 212 211 214 213 212 208 175 178 180 212 212 206 211 212 218 209 216